When you browse on this site, cookies collect data to enhance your experience and personalize the content and advertising you see.
Visit our Privacy Policy to learn more. By continuing to use the site, you agree to this use of cookies and data.
  • In Romania
  • List of Countries
  • For 7 days
  • Water Temperature
  • Satellite Maps
  • Weather Map
  • Weather Widgets
  • user-avatar
    Login

    Hourly Weather Dektyarka

    Today, 21 April, Sunday

    Time Temperature Precipitation Wind Pressure Humidity
    00:00 +2°C° 0 mm 1 mps 753 mmHg 90%
    01:00 +2°C° 0 mm 1 mps 753 mmHg 91%
    02:00 +2°C° 0 mm 1 mps 753 mmHg 93%
    03:00 +2°C° 0 mm 1 mps 753 mmHg 94%
    04:00 +2°C° 0 mm 1 mps 753 mmHg 94%
    05:00 +2°C° 0 mm 1 mps 754 mmHg 95%
    06:00 +4°C° 0 mm 1 mps 754 mmHg 88%
    07:00 +6°C° 0 mm 1 mps 754 mmHg 81%
    08:00 +8°C° 0 mm 1 mps 754 mmHg 74%
    09:00 +9°C° 0 mm 1 mps 754 mmHg 67%
    10:00 +11°C° 0 mm 1 mps 754 mmHg 60%
    11:00 +13°C° 0 mm 1 mps 754 mmHg 53%
    12:00 +14°C° 0 mm 1 mps 754 mmHg 49%
    13:00 +13°C° 0 mm 0 mps 754 mmHg 46%
    14:00 +14°C° 0 mm 0 mps 754 mmHg 43%
    15:00 +14°C° 0 mm 0 mps 754 mmHg 44%
    16:00 +14°C° 0 mm 1 mps 754 mmHg 45%
    17:00 +14°C° 0 mm 1 mps 753 mmHg 47%
    18:00 +12°C° 0 mm 1 mps 753 mmHg 53%
    19:00 +10°C° 0 mm 1 mps 754 mmHg 59%
    20:00 +7°C° 0 mm 0 mps 754 mmHg 65%
    21:00 +7°C° 0 mm 0 mps 754 mmHg 68%
    22:00 +6°C° 0 mm 0 mps 754 mmHg 70%
    23:00 +6°C° 0 mm 0 mps 754 mmHg 72%

    Tomorrow, 22 April, Monday

    Time Temperature Precipitation Wind Pressure Humidity
    00:00 +5°C° 0 mm 0 mps 754 mmHg 74%
    01:00 +5°C° 0 mm 0 mps 754 mmHg 76%
    02:00 +6°C° 0 mm 1 mps 754 mmHg 79%
    03:00 +6°C° 0 mm 1 mps 754 mmHg 80%
    04:00 +6°C° 0 mm 1 mps 754 mmHg 82%
    05:00 +5°C° 0 mm 1 mps 754 mmHg 84%
    06:00 +7°C° 0 mm 1 mps 754 mmHg 76%
    07:00 +10°C° 0 mm 1 mps 755 mmHg 68%
    08:00 +12°C° 0 mm 1 mps 755 mmHg 61%
    09:00 +13°C° 0 mm 2 mps 755 mmHg 55%
    10:00 +14°C° 0 mm 2 mps 754 mmHg 50%
    11:00 +16°C° 0 mm 2 mps 754 mmHg 45%
    12:00 +16°C° 0 mm 2 mps 754 mmHg 43%
    13:00 +17°C° 0 mm 3 mps 754 mmHg 41%
    14:00 +17°C° 0 mm 3 mps 754 mmHg 39%
    15:00 +17°C° 0 mm 3 mps 753 mmHg 41%
    16:00 +17°C° 0 mm 2 mps 753 mmHg 43%
    17:00 +16°C° 0 mm 2 mps 753 mmHg 46%
    18:00 +15°C° 0 mm 2 mps 753 mmHg 52%
    19:00 +13°C° 0 mm 2 mps 753 mmHg 59%
    20:00 +10°C° 0 mm 2 mps 753 mmHg 66%
    21:00 +9°C° 0 mm 2 mps 753 mmHg 69%
    22:00 +9°C° 0 mm 2 mps 753 mmHg 72%
    23:00 +8°C° 0 mm 2 mps 753 mmHg 75%

    Day after tomorrow, 23 April, Tuesday

    Time Temperature Precipitation Wind Pressure Humidity
    00:00 +8°C° 0 mm 2 mps 753 mmHg 77%
    01:00 +7°C° 0 mm 2 mps 753 mmHg 78%
    02:00 +7°C° 0 mm 2 mps 753 mmHg 80%
    03:00 +7°C° 0 mm 2 mps 754 mmHg 79%
    04:00 +8°C° 0 mm 2 mps 754 mmHg 78%
    05:00 +8°C° 0 mm 2 mps 754 mmHg 77%
    06:00 +9°C° 0 mm 3 mps 754 mmHg 73%
    07:00 +10°C° 0 mm 3 mps 754 mmHg 70%
    08:00 +10°C° 0 mm 3 mps 754 mmHg 66%
    09:00 +12°C° 0 mm 3 mps 754 mmHg 59%
    10:00 +13°C° 0 mm 4 mps 754 mmHg 53%
    11:00 +14°C° 0 mm 4 mps 754 mmHg 46%
    12:00 +15°C° 0 mm 4 mps 754 mmHg 44%
    13:00 +17°C° 0 mm 4 mps 754 mmHg 41%
    14:00 +18°C° 0 mm 4 mps 754 mmHg 38%
    15:00 +18°C° 0 mm 4 mps 754 mmHg 40%
    16:00 +18°C° 0 mm 3 mps 753 mmHg 42%
    17:00 +17°C° 0 mm 3 mps 753 mmHg 44%
    18:00 +16°C° 0 mm 3 mps 753 mmHg 50%
    19:00 +14°C° 0 mm 2 mps 753 mmHg 57%
    20:00 +12°C° 0 mm 2 mps 753 mmHg 63%
    21:00 +10°C° 0 mm 2 mps 754 mmHg 66%
    22:00 +9°C° 0 mm 2 mps 754 mmHg 69%
    23:00 +9°C° 0 mm 2 mps 754 mmHg 72%

    24 April, Wednesday

    Time Temperature Precipitation Wind Pressure Humidity
    00:00 +8°C° 0 mm 2 mps 754 mmHg 73%
    01:00 +7°C° 0 mm 2 mps 754 mmHg 75%
    02:00 +7°C° 0 mm 2 mps 755 mmHg 77%
    03:00 +7°C° 0 mm 2 mps 755 mmHg 76%
    04:00 +7°C° 0 mm 2 mps 755 mmHg 76%
    05:00 +6°C° 0 mm 2 mps 755 mmHg 76%
    06:00 +8°C° 0 mm 3 mps 755 mmHg 69%
    07:00 +10°C° 0 mm 3 mps 755 mmHg 61%
    08:00 +12°C° 0 mm 3 mps 755 mmHg 54%
    09:00 +14°C° 0 mm 3 mps 755 mmHg 49%
    10:00 +16°C° 0 mm 3 mps 755 mmHg 45%
    11:00 +18°C° 0 mm 4 mps 755 mmHg 40%
    12:00 +18°C° 0 mm 3 mps 755 mmHg 39%
    13:00 +19°C° 0 mm 3 mps 755 mmHg 38%
    14:00 +19°C° 0 mm 3 mps 755 mmHg 36%
    15:00 +19°C° 0 mm 3 mps 755 mmHg 39%
    16:00 +19°C° 0 mm 3 mps 754 mmHg 41%
    17:00 +18°C° 0 mm 2 mps 754 mmHg 44%
    18:00 +16°C° 0 mm 2 mps 754 mmHg 50%
    19:00 +14°C° 0 mm 2 mps 754 mmHg 56%
    20:00 +12°C° 0 mm 1 mps 754 mmHg 62%
    21:00 +11°C° 0 mm 1 mps 754 mmHg 63%
    22:00 +11°C° 0 mm 1 mps 754 mmHg 65%
    23:00 +10°C° 0 mm 1 mps 755 mmHg 66%

    25 April, Thursday

    Time Temperature Precipitation Wind Pressure Humidity
    00:00 +9°C° 0 mm 0 mps 755 mmHg 67%
    01:00 +8°C° 0 mm 0 mps 755 mmHg 67%
    02:00 +8°C° 0 mm 0 mps 755 mmHg 68%
    03:00 +9°C° 0 mm 1 mps 755 mmHg 69%
    04:00 +9°C° 0 mm 1 mps 755 mmHg 70%
    05:00 +9°C° 0 mm 1 mps 755 mmHg 71%
    06:00 +11°C° 0 mm 1 mps 755 mmHg 65%
    07:00 +13°C° 0 mm 1 mps 755 mmHg 58%
    08:00 +15°C° 0 mm 1 mps 755 mmHg 51%
    09:00 +18°C° 0 mm 1 mps 755 mmHg 46%
    10:00 +19°C° 0 mm 1 mps 754 mmHg 41%
    11:00 +20°C° 0 mm 2 mps 754 mmHg 35%
    12:00 +20°C° 0 mm 2 mps 754 mmHg 35%
    13:00 +21°C° 0 mm 2 mps 753 mmHg 34%
    14:00 +21°C° 0 mm 3 mps 753 mmHg 34%
    15:00 +21°C° 0 mm 2 mps 752 mmHg 37%
    16:00 +20°C° 0 mm 2 mps 752 mmHg 40%
    17:00 +20°C° 0 mm 2 mps 751 mmHg 43%
    18:00 +18°C° 0 mm 2 mps 751 mmHg 49%
    19:00 +16°C° 0 mm 1 mps 751 mmHg 55%
    20:00 +14°C° 0 mm 1 mps 750 mmHg 61%
    21:00 +13°C° 0 mm 1 mps 750 mmHg 63%
    22:00 +12°C° 0 mm 1 mps 750 mmHg 64%
    23:00 +12°C° 0 mm 1 mps 750 mmHg 66%

    26 April, Friday

    Time Temperature Precipitation Wind Pressure Humidity
    00:00 +11°C° 0 mm 1 mps 750 mmHg 68%
    01:00 +11°C° 0 mm 1 mps 750 mmHg 70%
    02:00 +10°C° 0 mm 1 mps 749 mmHg 71%
    03:00 +9°C° 0 mm 2 mps 749 mmHg 73%
    04:00 +9°C° 0 mm 2 mps 749 mmHg 74%
    05:00 +8°C° 0 mm 2 mps 748 mmHg 75%
    06:00 +12°C° 0 mm 2 mps 748 mmHg 68%
    07:00 +14°C° 0 mm 2 mps 748 mmHg 62%
    08:00 +16°C° 0 mm 2 mps 747 mmHg 55%
    09:00 +17°C° 0 mm 3 mps 747 mmHg 50%
    10:00 +19°C° 0 mm 3 mps 747 mmHg 46%
    11:00 +20°C° 0 mm 4 mps 746 mmHg 41%
    12:00 +21°C° 0 mm 4 mps 746 mmHg 40%
    13:00 +21°C° 0 mm 4 mps 745 mmHg 39%
    14:00 +22°C° 0 mm 5 mps 744 mmHg 39%
    15:00 +21°C° 0 mm 4 mps 744 mmHg 42%
    16:00 +20°C° 0 mm 3 mps 743 mmHg 46%
    17:00 +19°C° 0 mm 2 mps 742 mmHg 49%
    18:00 +18°C° 0.2 mm 2 mps 742 mmHg 56%
    19:00 +16°C° 0.2 mm 2 mps 742 mmHg 63%
    20:00 +14°C° 0.2 mm 3 mps 742 mmHg 70%
    21:00 +14°C° 0.8 mm 3 mps 742 mmHg 76%
    22:00 +13°C° 0.8 mm 3 mps 742 mmHg 82%
    23:00 +13°C° 0.8 mm 3 mps 742 mmHg 88%
    Show more